{"data":{"norad_id":63201,"epoch":"2026-09-21T17:31:19.992864Z","epoch_age_seconds":55883,"freshness":"FRESH","line1":"1 63201U 25048U   26264.73009251  .00009420  00000+0  35132-3 0  9999","line2":"2 63201  43.0020  58.2140 0001042 269.6404  90.4329 15.27587778 87077","mean_motion":15.27587778,"eccentricity":0.0001042,"inclination_deg":43.002,"raan_deg":58.214,"arg_perigee_deg":269.6404,"mean_anomaly_deg":90.4329,"bstar":0.00035132,"rev_number":8707,"period_min":94.266268736801,"perigee_km":482.31087284397,"apogee_km":483.74073917274,"semimajor_km":6861.1628060084,"source":"CELESTRAK","updated_at":"2026-09-22T09:00:49.798377Z"}}